Location: Bay Shore Mobile Home Park
(38.5762°N, 75.0841°W)
Time: 19:38:49
(UTC+00:00)

Timation 1 Rocket - Pass Details

Date: 15 November 2025
Orbit: 898 x 905 km, 70.0° (Epoch: 08 December)

Event Time Altitude Azimuth Distance (km) Brightness Sun altitude
Rises 23:37:54 0° 334° (NNW) 3,524 7.7 -21.7°
Reaches altitude 10° 23:40:24 10° 333° (NNW) 2,580 6.9 -22.2°
Maximum altitude 23:46:21 76° 249° (WSW) 928 4.4 -23.3°
Drops below altitude 10° 23:52:16 10° 164° (SSE) 2,569 6.6 -24.5°
Sets 23:54:45 0° 163° (SSE) 3,507 7.3 -25.0°
